Tracking 29892 objects as of 21-Nov-2024
HD Live streaming from Space Station
objects crossing your sky now

STARLINK-11169

Track STARLINK-11169 now!
10-day predictions
STARLINK-11169 is classified as:


NORAD ID: 60064
Int'l Code: 2024-113F
Perigee: 366.0 km
Apogee: 367.7 km
Inclination: 53.2 °
Period: 91.7 minutes
Semi major axis: 6737 km
RCS: Unknown
Launch date: June 19, 2024
Source: United States (US)
Launch site: AIR FORCE WESTERN TEST RANGE (AFWTR)
Your satellite tracking list
Your tracking list is empty




NASA's NSSDC Master Catalog

Two Line Element Set (TLE):
1 60064U 24113F   24325.16450394 -.00001127  00000-0 -44434-5 0  9992
2 60064  53.1570  10.3025 0001253  66.6951 293.4198 15.69720265 25033
Source of the keplerian elements: AFSPC